Weather History for St. Cloud, MN

Change the Weather History Date:

Sunday, September 7, 2014

  Actual Average Record
Temperature  
Mean Temperature 68 °F 62 °F  
Max Temperature 79 °F 74 °F 98 °F (1978)
Min Temperature 56 °F 51 °F 35 °F (1956)
Degree Days  
Heating Degree Days 0 5  
Month to date heating degree days 6 27  
Since 1 July heating degree days 15 85  
Cooling Degree Days 3 2  
Month to date cooling degree days 17 14  
Year to date cooling degree days 576 443  
Growing Degree Days 17 (Base 50)    
Moisture  
Dew Point 52 °F    
Average Humidity 60    
Maximum Humidity 77    
Minimum Humidity 42    
Precipitation  
Precipitation 0.00 in 0.13 in 2.23 in (1991)
Month to date precipitation 3.23 0.93  
Year to date precipitation 32.60 20.51  
Snow  
Snow 0.00 in 0.00 in 0.00 in ()
Month to date snowfall 0.0 0.0  
Since 1 July snowfall 0.0 0.0  
Since 1 September snowfall 0.0 0.0  
Snow Depth 0.00 in    
Sea Level Pressure  
Sea Level Pressure 30.08 in    
Wind  
Wind Speed 10 mph (South)    
Max Wind Speed 17 mph    
Max Gust Speed 23 mph    
Visibility 10 miles    
Events      
T = Trace of Precipitation, MM = Missing Value Source: NWS Daily Summary

Daily Weather History Graph

Daily Weather History Graph

Search for Another Location

Airport:

Trip Planner

Search our weather history database for the weather conditions in past years. The results will help you decide how hot, cold, wet, or windy it might be!

Date:

Astronomy

Sep. 07, 2014 Rise Set
Actual Time 6:44 AM CDT 7:42 PM CDT
Civil Twilight 6:14 AM CDT 8:12 PM CDT
Nautical Twilight 5:38 AM CDT 8:48 PM CDT
Astronomical Twilight 5:00 AM CDT 9:26 PM CDT
Moon 6:44 PM CDT (9/7) 4:55 AM CDT (9/7)
Length of Visible Light 13h 58m
Length of Day
12h 57m
Waxing Gibbous, 97% of the Moon is Illuminated
Sep 7
Waxing Gibbous
Sep 8
Full
Sep 15
Last Quarter
Sep 24
New
Oct 1
First Quarter

Hourly Weather History & Observations

Time (CDT) Temp. Dew Point Humidity Pressure Visibility Wind Dir Wind Speed Gust Speed Precip Events Conditions
12:53 AM 61.0 °F 48.9 °F 64% 30.13 in 10.0 mi SW 6.9 mph - N/A   Clear
1:53 AM 57.0 °F 48.9 °F 74% 30.13 in 10.0 mi SSW 5.8 mph - N/A   Clear
2:53 AM 60.1 °F 48.0 °F 64% 30.12 in 10.0 mi SW 5.8 mph - N/A   Clear
3:53 AM 57.9 °F 48.0 °F 70% 30.13 in 10.0 mi SSW 6.9 mph - N/A   Clear
4:53 AM 57.0 °F 48.0 °F 72% 30.14 in 10.0 mi SSW 6.9 mph - N/A   Clear
5:53 AM 55.9 °F 48.0 °F 75% 30.14 in 10.0 mi South 4.6 mph - N/A   Mostly Cloudy
6:53 AM 57.0 °F 48.9 °F 74% 30.14 in 10.0 mi South 4.6 mph - N/A   Mostly Cloudy
7:53 AM 59.0 °F 50.0 °F 72% 30.14 in 10.0 mi South 6.9 mph - N/A   Scattered Clouds
8:53 AM 63.0 °F 52.0 °F 67% 30.13 in 10.0 mi South 8.1 mph - N/A   Scattered Clouds
9:53 AM 66.9 °F 52.0 °F 59% 30.12 in 10.0 mi South 11.5 mph - N/A   Clear
10:53 AM 72.0 °F 53.1 °F 51% 30.12 in 10.0 mi South 15.0 mph - N/A   Clear
11:53 AM 73.9 °F 54.0 °F 50% 30.11 in 10.0 mi South 13.8 mph - N/A   Clear
12:53 PM 75.9 °F 55.0 °F 48% 30.08 in 10.0 mi South 16.1 mph 21.9 mph N/A   Clear
1:39 PM 78.1 °F 55.9 °F 46% 30.06 in 10.0 mi South 15.0 mph - N/A   Clear
1:53 PM 78.1 °F 55.9 °F 46% 30.07 in 10.0 mi South 15.0 mph 20.7 mph N/A   Clear
2:53 PM 79.0 °F 55.0 °F 44% 30.05 in 10.0 mi South 15.0 mph - N/A   Clear
3:53 PM 78.8 °F 55.4 °F 44% 30.03 in 10.0 mi South 15.0 mph - N/A   Clear
4:53 PM 78.1 °F 54.0 °F 43% 30.03 in 10.0 mi South 13.8 mph - N/A   Clear
5:53 PM 77.0 °F 54.0 °F 45% 30.02 in 10.0 mi South 13.8 mph - N/A   Clear
6:53 PM 72.0 °F 55.0 °F 55% 30.02 in 10.0 mi SSE 9.2 mph - N/A   Partly Cloudy
7:53 PM 68.0 °F 55.9 °F 65% 30.01 in 10.0 mi SSE 8.1 mph - N/A   Clear
8:53 PM 66.0 °F 53.1 °F 63% 30.02 in 10.0 mi SSE 8.1 mph - N/A   Clear
9:53 PM 62.1 °F 52.0 °F 70% 30.02 in 10.0 mi SSE 6.9 mph - N/A   Clear
11:53 PM 63.0 °F 51.1 °F 65% 30.00 in 10.0 mi SSE 8.1 mph - N/A   Clear